Date,TemperatureHighF,TemperatureAvgF,TemperatureLowF,DewpointHighF,DewpointAvgF,DewpointLowF,HumidityHigh,HumidityAvg,HumidityLow,PressureMaxIn,PressureMinIn,WindSpeedMaxMPH,WindSpeedAvgMPH,GustSpeedMaxMPH,PrecipitationSumIn
2013-3-1,67,63,58,58,53,48,89,71,61,29.98,29.90,8,1,12,0.01
2013-3-2,68,59,52,49,44,39,72,59,42,30.03,29.95,13,2,18,0.00
2013-3-3,66,56,50,48,44,41,85,66,44,30.15,29.96,8,1,14,0.01
2013-3-4,67,55,42,46,40,35,75,59,34,30.22,30.12,10,2,15,0.00
2013-3-5,72,62,48,59,53,43,94,73,56,30.18,30.08,9,2,13,0.00
2013-3-6,80,66,53,67,53,27,92,66,25,30.10,29.94,9,2,14,0.02
2013-3-7,72,59,47,55,46,36,87,62,38,30.18,30.07,7,2,11,0.00
2013-3-8,76,64,52,58,53,48,91,70,43,30.20,30.10,8,1,10,0.00
2013-3-9,78,66,54,61,55,49,89,69,52,30.19,30.10,9,2,13,0.00
2013-3-10,76,71,67,63,58,54,77,64,55,30.16,30.06,8,2,11,0.00
2013-3-11,76,72,70,64,62,59,77,69,59,30.10,29.95,9,4,16,0.00
2013-3-12,78,74,71,71,67,63,84,78,68,30.00,29.91,13,4,16,0.00
2013-3-13,79,67,58,66,58,48,90,73,49,30.12,29.97,11,2,16,0.00
2013-3-14,74,62,54,53,49,42,87,65,33,30.20,30.08,11,3,18,0.00
2013-3-15,75,64,53,58,51,44,80,64,45,30.25,30.15,9,2,16,0.00
2013-3-16,74,65,53,58,54,50,95,70,52,30.19,30.09,9,2,12,0.00
2013-3-17,76,69,60,63,59,54,86,71,60,30.15,30.02,11,2,13,0.00
2013-3-18,79,73,68,70,66,62,94,80,72,30.07,29.96,13,3,17,0.05
2013-3-19,81,73,67,71,69,65,96,87,63,30.01,29.82,12,1,15,0.02
2013-3-20,79,71,63,71,66,60,98,84,62,29.98,29.80,8,2,12,0.01
2013-3-21,76,67,57,62,57,51,91,71,43,29.94,29.83,10,2,12,0.00
2013-3-22,75,68,54,71,60,51,93,78,62,30.01,29.90,9,2,12,0.00
2013-3-23,82,77,71,76,73,69,97,88,75,29.98,29.81,12,3,17,0.01
2013-3-24,90,81,75,74,73,71,95,78,54,29.89,29.68,12,3,17,0.01
2013-3-25,82,75,66,73,62,42,94,66,36,29.99,29.74,12,2,13,0.01
2013-3-26,71,62,52,45,40,33,61,44,25,30.21,29.98,13,4,19,0.00
2013-3-27,71,58,46,51,44,35,72,59,41,30.24,30.16,11,2,14,0.00
2013-3-28,74,62,51,53,46,35,77,58,34,30.26,30.16,8,2,12,0.00
2013-3-29,78,66,56,58,51,42,73,59,45,30.28,30.20,12,2,13,0.00
2013-3-30,75,69,64,56,54,51,68,58,45,30.26,30.16,7,2,13,0.00
2013-3-31,78,73,69,68,63,55,82,71,61,30.19,30.05,9,4,15,0.00